(128406) = 2000 KK34 = 2004 LF15

Discovered at Socorro on 2004-06-11 by LINEAR.

Orbit

Orbit type: Main Belt

Note: WebGL enabled browser required.

epoch2023-09-13.0
epoch JD2460200.5
perihelion date2023-02-23.35063
perihelion JD2459998.85063
argument of perihelion (°)221.83085
ascending node (°)78.22024
inclination (°)7.79940
eccentricity0.1025519
perihelion distance (AU)2.1506094
Tisserand w.r.t. Jupiter3.5
ΔV w.r.t. Earth (km/sec)9.4
semimajor axis (AU)2.3963607
mean anomaly (°)53.57627
mean daily motion (°/day)0.26569020
aphelion distance (AU)2.642
period (years)3.71
P-vector [x]0.49473236
P-vector [y]-0.75699645
P-vector [z]-0.42684456
Q-vector [x]0.85883149
Q-vector [y]0.50096215
Q-vector [z]0.10698311
absolute magnitude16.07
phase slope0.15
uncertainty0
referenceMPEC 2024-A48
observations used845
oppositions17
arc length (days)8594
first opposition used2000
last opposition used2023
residual rms (arc-secs)0.72
perturbers coarse indicatorM-v
perturbers precise indicator003Ek
first observation date used2000-05-27.0
last observation date used2023-12-07.0
computer nameMPCLINUX
JD of orbit computation2456731.519029
perihelion JD uncertainty (days)1.4515E-04
argument of perihelion uncertainty (°)5.8683E-05
ascending node uncertainty (°)4.5632E-05
inclination uncertainty (°)6.4022E-06
eccentricity uncertainty 4.1616E-08
perihelion distance uncertainty (AU)9.9496E-08
Minimum Orbit Intersection Distances (in AU)
for orbit epoch: 2460200.5, reference: E2024-A48
Mercury1.70221
Venus1.42386
Earth1.1411
Mars0.71933
Jupiter2.51109
Saturn6.4427
Uranus15.8867
Neptune27.3913

Observations

860 total observations over interval: 2000 05 27.30801 – 2023 12 07.143013
These data are available for download (format description).

Date (UT) J2000 RA J2000 Dec Magn Location Ref
2000 05 27.30801 16 00 06.11 -16 51 29.4 18.5   704 – Lincoln Laboratory ETS, New Mexico MPS 15974
2000 05 27.32161 16 00 05.14 -16 51 30.3 18.6   704 – Lincoln Laboratory ETS, New Mexico MPS 15974
2000 05 27.33523 16 00 04.30 -16 51 31.5 18.7   704 – Lincoln Laboratory ETS, New Mexico MPS 15974
2000 05 27.34877 16 00 03.39 -16 51 32.4 18.7   704 – Lincoln Laboratory ETS, New Mexico MPS 15974
2000 05 27.36234 16 00 02.51 -16 51 33.8 18.6   704 – Lincoln Laboratory ETS, New Mexico MPS 15974
2000 05 30.23034 15 57 01.05 -16 55 47.6 17.7   704 – Lincoln Laboratory ETS, New Mexico MPS 15974
2000 05 30.24364 15 57 00.10 -16 55 47.6 18.2   704 – Lincoln Laboratory ETS, New Mexico MPS 15974
2000 05 30.25694 15 56 59.29 -16 55 49.1 18.0   704 – Lincoln Laboratory ETS, New Mexico MPS 15974
2000 05 30.27023 15 56 58.40 -16 55 50.0 18.0   704 – Lincoln Laboratory ETS, New Mexico MPS 15974
2000 05 30.28363 15 56 57.52 -16 55 51.1 18.1   704 – Lincoln Laboratory ETS, New Mexico MPS 15974
2001 10 17.32376 03 19 52.26 +10 06 45.4 19.7   704 – Lincoln Laboratory ETS, New Mexico MPS 110764
2001 10 17.33366 03 19 51.78 +10 06 43.9 19.8   704 – Lincoln Laboratory ETS, New Mexico MPS 110764
2001 10 17.33965 03 19 51.48 +10 06 42.4 20.6   704 – Lincoln Laboratory ETS, New Mexico MPS 110764
2001 10 17.34967 03 19 50.94 +10 06 41.8 20.2   704 – Lincoln Laboratory ETS, New Mexico MPS 110764
2001 10 17.35565 03 19 50.65 +10 06 40.8 19.8   704 – Lincoln Laboratory ETS, New Mexico MPS 110764
2001 10 17.36556 03 19 50.07 +10 06 39.3 20.4   704 – Lincoln Laboratory ETS, New Mexico MPS 110764
2001 10 17.37153 03 19 49.91 +10 06 38.5 20.2   704 – Lincoln Laboratory ETS, New Mexico MPS 110764
2001 10 17.38147 03 19 49.35 +10 06 37.3 19.9   704 – Lincoln Laboratory ETS, New Mexico MPS 110764
2001 10 17.38746 03 19 49.12 +10 06 36.0 20.1   704 – Lincoln Laboratory ETS, New Mexico MPS 110764
2001 11 18.21152 02 48 06.53 +09 16 32.0 19.0   704 – Lincoln Laboratory ETS, New Mexico MPS 110764
2001 11 18.22646 02 48 05.63 +09 16 31.9 20.0   704 – Lincoln Laboratory ETS, New Mexico MPS 110764
2001 11 18.24137 02 48 04.70 +09 16 31.5 19.7   704 – Lincoln Laboratory ETS, New Mexico MPS 110764
2001 11 18.25627 02 48 03.79 +09 16 31.0 19.5   704 – Lincoln Laboratory ETS, New Mexico MPS 110764
2001 11 18.27116 02 48 02.91 +09 16 30.5 19.5   704 – Lincoln Laboratory ETS, New Mexico MPS 110764
2001 12 11.23067 02 30 57.00 +09 38 09.2 20.2   704 – Lincoln Laboratory ETS, New Mexico MPS 110764
2001 12 11.24591 02 30 56.56 +09 38 10.5 19.9   704 – Lincoln Laboratory ETS, New Mexico MPS 110764
2001 12 11.26115 02 30 56.12 +09 38 13.7 19.4   704 – Lincoln Laboratory ETS, New Mexico MPS 110764
2001 12 11.27638 02 30 55.72 +09 38 16.2 20.1   704 – Lincoln Laboratory ETS, New Mexico MPS 110764
2004 06 11.38006 20 04 25.70 -25 43 59.1 18.3   704 – Lincoln Laboratory ETS, New Mexico MPS 109088
2004 06 11.39030 20 04 25.36 -25 44 04.4 19.7   704 – Lincoln Laboratory ETS, New Mexico MPS 109088
2004 06 11.41117 20 04 25.13 -25 44 12.3 19.0   704 – Lincoln Laboratory ETS, New Mexico MPS 109088
2004 06 11.42141 20 04 24.96 -25 44 17.0 18.7   704 – Lincoln Laboratory ETS, New Mexico MPS 109088
2004 06 15.32974 20 03 14.10 -26 11 19.8 19.0   704 – Lincoln Laboratory ETS, New Mexico MPS 109088
2004 06 15.33956 20 03 13.84 -26 11 22.6 19.0   704 – Lincoln Laboratory ETS, New Mexico MPS 109088
2004 06 15.34928 20 03 13.58 -26 11 27.6 19.3   704 – Lincoln Laboratory ETS, New Mexico MPS 109088
2004 06 15.35907 20 03 13.37 -26 11 31.5 19.2   704 – Lincoln Laboratory ETS, New Mexico MPS 109088
2004 06 24.65561 19 58 21.52 -27 20 38.4 18.9 V 428 – Reedy Creek MPS 109987
2004 07 11.24290 19 44 07.06 -29 25 13.4 18.6   704 – Lincoln Laboratory ETS, New Mexico MPS 110368
2004 07 11.25340 19 44 06.51 -29 25 17.6 18.6   704 – Lincoln Laboratory ETS, New Mexico MPS 110368
2004 07 11.26415 19 44 05.80 -29 25 22.5 18.3   704 – Lincoln Laboratory ETS, New Mexico MPS 110368
2004 07 11.27517 19 44 05.11 -29 25 27.0 18.4   704 – Lincoln Laboratory ETS, New Mexico MPS 110368
2005 11 22.32638 05 29 31.41 +22 23 07.5 19.8 V 691 – Steward Observatory, Kitt Peak-Spacewatch MPS 152073
2005 11 22.34376 05 29 30.36 +22 23 10.1 20.0 V 691 – Steward Observatory, Kitt Peak-Spacewatch MPS 152073
2005 11 22.36115 05 29 29.36 +22 23 12.2 19.9 V 691 – Steward Observatory, Kitt Peak-Spacewatch MPS 152073
2005 11 30.19533 05 21 29.39 +22 39 27.0 19.1 V 691 – Steward Observatory, Kitt Peak-Spacewatch MPS 152073
2005 11 30.21262 05 21 28.45 +22 39 27.5 19.6 V 691 – Steward Observatory, Kitt Peak-Spacewatch MPS 152073
2005 11 30.22998 05 21 27.29 +22 39 29.9 19.6 V 691 – Steward Observatory, Kitt Peak-Spacewatch MPS 152073
2005 12 01.32232 05 20 15.27 +22 41 38.3 19.6   704 – Lincoln Laboratory ETS, New Mexico MPS 153682
2005 12 01.34788 05 20 13.47 +22 41 42.6 19.5   704 – Lincoln Laboratory ETS, New Mexico MPS 153682
2005 12 01.36062 05 20 12.59 +22 41 43.6 20.4   704 – Lincoln Laboratory ETS, New Mexico MPS 153682
2005 12 01.37328 05 20 11.76 +22 41 44.5 19.8   704 – Lincoln Laboratory ETS, New Mexico MPS 153682
2005 12 04.27777 05 16 57.15 +22 47 19.0 20.0   704 – Lincoln Laboratory ETS, New Mexico MPS 153682
2005 12 04.29097 05 16 56.28 +22 47 19.5 20.3   704 – Lincoln Laboratory ETS, New Mexico MPS 153682
2005 12 04.30393 05 16 55.29 +22 47 20.7 19.9   704 – Lincoln Laboratory ETS, New Mexico MPS 153682
2005 12 10.27843 05 10 03.96 +22 57 55.0 19.1   704 – Lincoln Laboratory ETS, New Mexico MPS 155299
2005 12 10.29153 05 10 03.09 +22 57 56.2 19.6   704 – Lincoln Laboratory ETS, New Mexico MPS 155299
2005 12 10.31714 05 10 01.21 +22 57 59.7 19.6   704 – Lincoln Laboratory ETS, New Mexico MPS 155299
2005 12 24.27680 04 54 36.57 +23 18 18.7 20.1 g 568 – Maunakea MPS 316028
2005 12 24.37434 04 54 30.43 +23 18 26.5 20.1 g 568 – Maunakea MPS 316028
2005 12 24.40878 04 54 28.26 +23 18 29.1 20.1 g 568 – Maunakea MPS 316028
2005 12 25.41238 04 53 27.99 +23 19 45.3 20.1 g 568 – Maunakea MPS 316028
2006 01 07.20264 04 42 46.00 +23 35 08.7 19.5 V G96 – Mt. Lemmon Survey MPS 158951
2006 01 07.20892 04 42 45.72 +23 35 09.3 19.7 V G96 – Mt. Lemmon Survey MPS 158951
2006 01 07.21520 04 42 45.46 +23 35 09.7 19.6 V G96 – Mt. Lemmon Survey MPS 158951
2006 01 07.22156 04 42 45.18 +23 35 10.3 19.6 V G96 – Mt. Lemmon Survey MPS 158951
2007 03 11.37595 12 48 10.13 +08 17 48.7 19.0 R 699 – Lowell Observatory-LONEOS MPS 204357
2007 03 11.39989 12 48 09.05 +08 17 57.0   699 – Lowell Observatory-LONEOS MPS 204357
2007 03 11.42379 12 48 07.86 +08 18 06.3   699 – Lowell Observatory-LONEOS MPS 204357
2007 03 11.44775 12 48 06.81 +08 18 14.8   699 – Lowell Observatory-LONEOS MPS 204357
2007 03 20.37885 12 40 37.38 +09 15 03.5 18.9 V 703 – Catalina Sky Survey MPS 205438
2007 03 20.38721 12 40 36.94 +09 15 06.8 19.4 V 703 – Catalina Sky Survey MPS 205438
2007 03 20.39557 12 40 36.44 +09 15 08.8 19.5 V 703 – Catalina Sky Survey MPS 205438
2007 03 20.40389 12 40 36.01 +09 15 12.4 19.4 V 703 – Catalina Sky Survey MPS 205438
2007 03 20.45383 12 40 33.09 +09 15 31.4 19.2 V 703 – Catalina Sky Survey MPS 205438
2007 03 20.46188 12 40 32.73 +09 15 35.1 18.8 V 703 – Catalina Sky Survey MPS 205438
2007 03 20.46979 12 40 32.30 +09 15 36.5 19.0 V 703 – Catalina Sky Survey MPS 205438
2007 04 11.28374 12 20 01.06 +10 54 53.3 19.2 V 703 – Catalina Sky Survey MPS 206717
2007 04 11.29319 12 20 00.60 +10 54 54.4 19.3 V 703 – Catalina Sky Survey MPS 206717
2007 04 11.30266 12 19 59.98 +10 54 56.4 19.0 V 703 – Catalina Sky Survey MPS 206717
2007 04 11.31212 12 19 59.59 +10 54 57.2 19.1 V 703 – Catalina Sky Survey MPS 206717
2007 04 22.22018 12 11 23.42 +11 08 52.8 19.5 V 703 – Catalina Sky Survey MPS 208738
2007 04 22.22946 12 11 23.06 +11 08 52.7 20.1 V 703 – Catalina Sky Survey MPS 208738
2007 04 22.23877 12 11 22.63 +11 08 51.9 19.2 V 703 – Catalina Sky Survey MPS 208738
2007 04 22.24806 12 11 22.23 +11 08 52.8 19.8 V 703 – Catalina Sky Survey MPS 208738
2007 05 09.28107 12 03 29.59 +10 36 47.0 19.7 V 703 – Catalina Sky Survey MPS 210017
2007 05 09.29128 12 03 29.37 +10 36 45.1 21.0 V 703 – Catalina Sky Survey MPS 210017
